Location: Plainartige
(45.6866°N, 1.7993°E)
Time: 16:48:14
(UTC+00:00)

Tiros 1 - Pass Details

Date: 02 June 2022
Orbit: 629 x 663 km, 48.4° (Epoch: 05 July)

Event Time Altitude Azimuth Distance (km) Brightness Sun altitude
Rises 02:07:36 0° 287° (WNW) 2,920 10.4 -15.4°
Reaches altitude 10° 02:09:55 10° 288° (WNW) 2,014 9.5 -15.1°
Maximum altitude 02:14:34 79° 16° (NNE) 650 7.2 -14.7°
Drops below altitude 10° 02:19:14 10° 103° (ESE) 2,028 10.0 -14.2°
Sets 02:21:35 0° 105° (ESE) 2,941 10.8 -14.0°
